| time (UTC) | temp F | wind direction | speed knots | gust knots | rain 1hr in | rain 24hr in | rain mn in | humidity % | barometer mb |
| 20260504081518 | 60 | 298 | 0.9 | 6.1 | 0.01 | 1.17 | 0.20 | 79 | 1009.4 |
| 20260504044518 | 70 | 235 | 6.1 | 8.7 | 0.00 | 1.18 | 0.16 | 53 | 1005.3 |
| 20260504041518 | 69 | 201 | 5.2 | 12.2 | 0.00 | 1.18 | 0.16 | 55 | 1005.2 |
| 20260504034517 | 69 | 264 | 7.8 | 11.3 | 0.00 | 1.18 | 0.16 | 56 | 1005.1 |
| 20260504031518 | 71 | 266 | 5.2 | 15.6 | 0.00 | 1.18 | 0.16 | 53 | 1004.7 |
| 20260504024518 | 72 | 275 | 11.3 | 14.8 | 0.00 | 1.18 | 0.16 | 50 | 1004.0 |
| 20260504021517 | 71 | 244 | 5.2 | 12.2 | 0.00 | 1.18 | 0.16 | 52 | 1004.3 |
| 20260504014517 | 70 | 248 | 6.1 | 12.2 | 0.00 | 1.18 | 0.16 | 53 | 1004.5 |
| 20260504011517 | 70 | 231 | 8.7 | 11.3 | 0.00 | 1.18 | 0.16 | 56 | 1004.6 |
| 20260504004518 | 69 | 279 | 5.2 | 12.2 | 0.00 | 1.18 | 0.16 | 62 | 1004.8 |
| 20260504001517 | 68 | 252 | 2.6 | 7.0 | 0.00 | 1.18 | 0.16 | 65 | 1004.6 |
| 20260503234517 | 67 | 198 | 4.3 | 7.8 | 0.00 | 1.18 | 0.16 | 70 | 1004.3 |
| 20260503231516 | 66 | 255 | 2.6 | 6.1 | 0.00 | 1.18 | 0.16 | 73 | 1004.0 |
| 20260503224517 | 65 | 158 | 2.6 | 5.2 | 0.00 | 1.18 | 0.16 | 77 | 1003.8 |
| 20260503221517 | 65 | 176 | 5.2 | 7.0 | 0.00 | 1.18 | 0.16 | 78 | 1003.4 |
| 20260503214517 | 64 | 181 | 5.2 | 7.8 | 0.00 | 1.18 | 0.16 | 80 | 1002.9 |
| 20260503211516 | 63 | 135 | 1.7 | 5.2 | 0.00 | 1.18 | 0.16 | 83 | 1002.5 |
| 20260503204516 | 63 | 179 | 4.3 | 7.0 | 0.00 | 1.18 | 0.16 | 87 | 1002.0 |
| 20260503201517 | 63 | 198 | 4.3 | 7.8 | 0.01 | 1.18 | 0.16 | 93 | 1001.7 |
| 20260503194518 | 63 | 158 | 6.1 | 11.3 | 0.01 | 1.18 | 0.16 | 95 | 1001.3 |
| 20260503191516 | 63 | 117 | 0.9 | 0.9 | 0.00 | 1.17 | 0.15 | 96 | 1001.3 |
| 20260503184516 | 64 | 271 | 0.0 | 4.3 | 0.09 | 1.17 | 0.15 | 96 | 1000.6 |
| 20260503181517 | 64 | 177 | 0.9 | 2.6 | 0.09 | 1.17 | 0.15 | 96 | 1000.4 |
| 20260503174518 | 65 | 114 | 0.0 | 0.0 | 0.01 | 1.09 | 0.06 | 97 | 1000.0 |
| 20260503171518 | 65 | 115 | 0.0 | 0.0 | 0.00 | 1.08 | 0.06 | 97 | 999.3 |